User: anonymous   Login
Location: Newark
(49.4569°N, 2.2158°E)
Time: 04:20:06
(UTC+00:00)
Language:

POLYITAN 1 - Orbit

View from above orbital plane
View from above orbital plane
View from above satellite
View from above satellite

Ground track
Ground track

The orbit data is extracted from the following two-line orbital elements,

1 40042U 14033AJ  20058.82821490 +.00000268 +00000-0 +34708-4 0  9992
2 40042 097.9215 343.6322 0013359 297.0806 062.9047 14.88814704308533
Epoch (UTC): 27 February 2020 19:52:37
Eccentricity: 0.0013359
inclination: 97.9215°
perigee height: 592 km
apogee height: 611 km
right ascension of ascending node: 343.6322°
argument of perigee: 297.0806°
revolutions per day: 14.88814704
mean anomaly at epoch: 62.9047°
orbit number at epoch: 30853

The dashed part of the orbit path shows where the satellite is in the earth's shadow,  

DLR